[[[{"header":{"parameterUnit":"kt","parameterCategory":2,"dx":1,"dy":1,"la1":30.253999710083008,"la2":30.299108505249023,"lo1":-89.0895004272461,"lo2":-89.04439544677734,"nx":28,"ny":28,"refTime":"2022-10-03T21:00:00:Z","depth":"0","parameterNumber":2,"parameterNumberName":"U-component_of_CURRENTS"},"data":[-0.1106,-0.0933,-0.083,-0.0575,-0.0486,-0.0332,-0.027,-0.0124,-0.0095,0.0093,0.0175,0.0033,-0.0235,-0.0616,-0.0901,-0.1071,-0.1337,-0.1224,-0.1561,-0.1853,-0.1962,-0.2066,-0.1827,-0.1042,-0.1042,-0.1139,-0.114,-0.114,-0.116,-0.1025,-0.0902,-0.0786,-0.0691,-0.0716,-0.0719,-0.0659,-0.0661,-0.0803,-0.1061,-0.1095,-0.1158,-0.1531,-0.1506,-0.1565,-0.1822,-0.1745,-0.1971,-0.2026,-0.2325,-0.2056,-0.1307,-0.1307,-0.1307,-0.1308,-0.1308,-0.1308,-0.1251,-0.1162,-0.1079,-0.0988,-0.0952,-0.0888,-0.086,-0.0979,-0.1171,-0.1581,-0.2097,-0.2366,-0.2623,-0.2712,-0.286,-0.2755,-0.3091,-0.2711,-0.2852,-0.3038,-0.2761,-0.2807,-0.2556,-0.2561,-0.2566,-0.257,-0.2574,0,-0.1347,-0.1319,-0.1278,-0.1181,-0.1156,-0.117,-0.1295,-0.1416,-0.1953,-0.2319,-0.2828,-0.3202,-0.3689,-0.3661,-0.3754,-0.3785,-0.4132,-0.4044,-0.4102,-0.3434,-0.3289,-0.3218,-0.3727,-0.3719,-0.3731,-0.374,-0.3747,-0.3752,-0.1465,-0.1418,-0.1402,-0.1365,-0.1364,-0.1449,-0.1549,-0.1976,-0.2219,-0.3068,-0.3271,-0.391,-0.4272,-0.4664,-0.4687,-0.4726,-0.4858,-0.4353,-0.4221,-0.3976,-0.403,-0.4139,-0.4081,-0.3885,-0.3868,-0.3854,-0.3843,0,-0.1515,-0.1523,-0.149,-0.1597,-0.1624,-0.1681,-0.1928,-0.2198,-0.2745,-0.3239,-0.3441,-0.4328,-0.467,-0.5079,-0.5449,-0.5371,-0.5282,-0.5306,-0.4728,-0.4629,-0.4073,-0.4119,-0.4266,-0.4189,-0.4932,-0.492,-0.4911,0,-0.1609,-0.1593,-0.1603,-0.1588,-0.169,-0.1854,-0.2146,-0.2505,-0.3068,-0.3433,-0.4084,-0.4468,-0.5019,-0.5314,-0.5338,-0.5282,-0.565,-0.5135,-0.5115,-0.4764,-0.4678,-0.4584,-0.4604,-0.5802,-0.5801,-0.58,-0.5799,0,-0.1658,-0.1669,-0.1652,-0.1666,-0.1848,-0.1973,-0.2129,-0.2711,-0.2986,-0.373,-0.403,-0.4665,-0.4914,-0.5133,-0.5183,-0.5148,-0.5518,-0.5537,-0.5102,-0.5061,-0.4694,-0.4599,-0.4838,-0.5797,-0.5796,-0.5796,-0.5795,0,-0.1721,-0.1706,-0.1693,-0.1823,-0.1849,-0.1933,-0.2383,-0.2608,-0.3299,-0.3564,-0.4072,-0.4354,-0.4807,-0.4633,-0.5057,-0.4916,-0.4915,-0.4983,-0.4995,-0.4429,-0.4276,-0.4019,-0.4217,-0.416,-0.4979,-0.4973,-0.4969,0,-0.1756,-0.1732,-0.1769,-0.1807,-0.1798,-0.1973,-0.2234,-0.2543,-0.2852,-0.3286,-0.3687,-0.4048,-0.3976,-0.4152,-0.4389,-0.4529,-0.4709,-0.4514,-0.4705,-0.4707,-0.4209,-0.4492,-0.4077,-0.4164,-0.4898,-0.4906,-0.4911,0,-0.1782,-0.1773,-0.1767,-0.1766,-0.1843,-0.187,-0.2128,-0.241,-0.2691,-0.2896,-0.3304,-0.3657,-0.3781,-0.3943,-0.409,-0.4302,-0.4575,-0.4152,-0.4158,-0.4187,-0.4968,-0.4451,-0.4448,-0.4657,-0.4668,-0.4676,-0.4855,0,-0.1792,-0.179,-0.1781,-0.181,-0.1851,-0.1855,-0.199,-0.2141,-0.2234,-0.2414,-0.2842,-0.3043,-0.3372,-0.3486,-0.3501,-0.3935,-0.3812,-0.3819,-0.3731,-0.4005,-0.403,-0.4076,-0.3459,-0.3453,-0.3449,-0.3445,0,0,-0.1803,-0.1791,-0.1798,-0.1796,-0.1807,-0.1836,-0.1846,-0.1974,-0.2075,-0.2257,-0.2168,-0.2689,-0.2789,-0.3307,-0.3381,-0.3423,-0.3447,-0.3387,-0.3842,-0.3886,-0.3927,-0.3969,-0.4018,-0.3437,-0.3435,-0.3433,-0.3432,0,-0.1789,-0.1802,-0.1793,-0.1805,-0.1795,-0.1833,-0.1827,-0.1849,-0.1931,-0.2097,-0.2197,-0.2445,-0.264,-0.2896,-0.3041,-0.3332,-0.3286,-0.335,-0.3549,-0.3795,-0.3846,-0.389,-0.3942,-0.3989,-0.342,-0.3421,-0.3421,0,-0.1788,-0.1784,-0.1784,-0.1797,-0.179,-0.1821,-0.1786,-0.1788,-0.1885,-0.1915,-0.2081,-0.2204,-0.2387,-0.2658,-0.2761,-0.2717,-0.3149,-0.3001,-0.3026,-0.2987,-0.323,-0.3288,-0.334,-0.2676,-0.2675,-0.2673,0,0,-0.1779,-0.1783,-0.178,-0.1791,-0.1783,-0.1783,-0.1791,-0.1794,-0.186,-0.1894,-0.1981,-0.2118,-0.2317,-0.2428,-0.254,-0.2774,-0.2781,-0.2916,-0.2951,-0.2981,-0.2959,-0.3208,-0.3263,-0.2666,-0.2665,-0.2665,0,0,-0.1769,-0.1756,-0.1751,-0.1768,-0.1774,-0.1783,-0.1789,-0.1789,-0.1887,-0.1892,-0.1977,-0.2011,-0.2222,-0.2254,-0.2152,-0.2567,-0.2413,-0.2435,-0.2596,-0.2639,-0.2674,-0.2621,-0.2126,0,0,0,0,0,-0.1733,-0.1753,-0.1749,-0.1749,-0.1769,-0.1784,-0.1791,-0.1796,-0.1772,-0.1795,-0.191,-0.1893,-0.2251,-0.2161,-0.2191,-0.2383,-0.2573,-0.2589,-0.2605,-0.2859,-0.2904,-0.2943,0,0,0,0,0,0,-0.1733,-0.1733,-0.1748,-0.1752,-0.1755,-0.1784,-0.1768,-0.1773,-0.1771,-0.1771,-0.1878,-0.1897,-0.1962,-0.2147,-0.2173,-0.2358,-0.2117,-0.2579,-0.2593,-0.2606,-0.2874,-0.2912,-0.2944,0,0,0,0,0,-0.1733,-0.1732,-0.1757,-0.1753,-0.1756,-0.1763,-0.1768,-0.1771,-0.1779,-0.187,-0.1886,-0.1775,-0.1961,-0.1989,-0.2163,-0.2347,-0.2099,-0.2108,-0.2588,-0.2599,-0.2609,-0.2893,0,0,0,0,0,0,-0.1732,-0.176,-0.1759,-0.1761,-0.1735,-0.1763,-0.1766,-0.177,-0.1882,-0.1893,-0.1775,-0.1774,-0.1962,-0.1983,-0.2004,-0.2347,-0.2084,-0.2094,-0.21,-0.2597,-0.2605,-0.2613,0,0,0,0,0,0,-0.1759,-0.1762,-0.1761,-0.1738,-0.1738,-0.1763,-0.1765,-0.1872,-0.1887,-0.1785,-0.1784,-0.1773,-0.1953,-0.1979,-0.1996,-0.2161,-0.2072,-0.2082,-0.2089,-0.2093,-0.2604,-0.261,0,0,0,0,0,0,-0.1761,-0.1763,-0.1738,-0.1738,-0.1738,-0.177,-0.1864,-0.1905,-0.1795,-0.1784,-0.1791,-0.179,-0.1951,-0.1967,-0.199,-0.2148,-0.2158,-0.2073,-0.2079,-0.2084,-0.2087,0,0,0,0,0,0,0,-0.1762,-0.1737,-0.1734,-0.1739,-0.1739,-0.1776,-0.1778,-0.178,-0.1795,-0.1793,-0.1792,-0.179,-0.2018,-0.2028,-0.2039,-0.2137,0,0,-0.2072,-0.2076,0,0,0,0,0,0,0,0,-0.1737,-0.1737,-0.1734,-0.1733,-0.1733,-0.1777,-0.1778,-0.178,-0.1795,-0.1793,-0.1792,-0.1791,-0.2021,-0.2029,-0.2038,0,0,0,0,0,0,0,0,0,0,0,0,0,0,0,-0.1734,-0.1733,0,-0.1777,-0.1778,-0.1779,-0.1795,-0.1793,-0.1792,-0.1791,-0.2023,-0.203,-0.2037,0,0,0,0,0,0,0,0,0,0,0,0,0,0,0,0,0,0,0,0,0,0,0,0,0,0,0,0,0,0,0,0,0,0,0,0,0,0,0,0,0,0,0,0,0,0,0,0,0,0,0,0,0,0,0,0,0,0,0,0,0,0,0,0,0,0,0,0,0]}],[{"header":{"parameterUnit":"kt","parameterCategory":2,"dx":1,"dy":1,"la1":30.253999710083008,"la2":30.299108505249023,"lo1":-89.0895004272461,"lo2":-89.04439544677734,"nx":28,"ny":28,"refTime":"2022-10-03T21:00:00:Z","depth":"0","parameterNumber":3,"parameterNumberName":"V-component_of_CURRENTS"},"data":[-0.2551,-0.2602,-0.2651,-0.265,-0.2672,-0.2637,-0.2675,-0.2743,-0.2797,-0.268,-0.2423,-0.209,-0.004,0.1961,0.3072,0.3045,0.3104,0.3046,0.3071,0.2753,0.2684,0.2619,0.269,0.3266,0.3266,0.3584,0.3587,0.3589,-0.2566,-0.2618,-0.2663,-0.2726,-0.2742,-0.2752,-0.2815,-0.2808,-0.2913,-0.2968,-0.2891,-0.1783,-0.0279,0.0892,0.237,0.2492,0.2387,0.2512,0.2457,0.2531,0.2095,0.2163,0.2636,0.2635,0.2635,0.2635,0.2635,0.2635,-0.2618,-0.2654,-0.2758,-0.2792,-0.2817,-0.2836,-0.2795,-0.2858,-0.2913,-0.2955,-0.2826,-0.2447,-0.0906,0.0541,0.0832,0.1658,0.1513,0.1829,0.179,0.1709,0.19,0.1356,0.1715,0.1713,0.1711,0.1709,0.1707,0,-0.2684,-0.2752,-0.2766,-0.286,-0.2839,-0.2794,-0.2762,-0.284,-0.2774,-0.2801,-0.2707,-0.2394,-0.1424,-0.0456,0.0467,0.0778,0.1015,0.1015,0.1157,0.144,0.1386,0.1573,0.0929,0.1173,0.1167,0.1163,0.116,0.1158,-0.2752,-0.2795,-0.284,-0.2852,-0.2814,-0.2746,-0.2692,-0.2597,-0.2592,-0.2498,-0.251,-0.205,-0.1641,-0.0775,-0.0117,0.0532,0.0633,0.0873,0.0884,0.1018,0.1066,0.1005,0.1114,0.1098,0.1106,0.1112,0.1117,0,-0.2774,-0.283,-0.2817,-0.2765,-0.274,-0.2677,-0.2531,-0.2493,-0.2417,-0.2391,-0.2355,-0.2018,-0.1498,-0.1,-0.0464,-0.022,0.0348,0.0357,0.0458,0.0561,0.0964,0.0948,0.1178,0.1335,0.0645,0.065,0.0654,0,-0.2789,-0.2757,-0.2784,-0.2762,-0.2704,-0.2515,-0.2417,-0.2287,-0.2189,-0.2159,-0.189,-0.1808,-0.1319,-0.0991,-0.0632,-0.0137,-0.0201,0.0155,0.0247,0.0368,0.0392,0.0632,0.0634,0.0053,0.0052,0.0051,0.005,0,-0.2766,-0.2726,-0.2711,-0.265,-0.2453,-0.2386,-0.2211,-0.1992,-0.1925,-0.1772,-0.1732,-0.1472,-0.1315,-0.1021,-0.0538,-0.055,-0.015,-0.0122,0.0177,0.0189,0.0428,0.0461,0.067,0.0049,0.0049,0.0048,0.0048,0,-0.2704,-0.2727,-0.2693,-0.2544,-0.2488,-0.2322,-0.2054,-0.189,-0.1707,-0.1592,-0.1455,-0.1273,-0.1068,-0.0914,-0.0542,-0.0585,-0.0377,-0.02,-0.019,0.0043,0.0155,0.0414,0.0445,0.0615,-0.0052,-0.0053,-0.0055,0,-0.2664,-0.2698,-0.2603,-0.2444,-0.2379,-0.2102,-0.1954,-0.1702,-0.1479,-0.1318,-0.1163,-0.1003,-0.0804,-0.0734,-0.06,-0.0339,-0.027,-0.0332,-0.0043,-0.0036,0.013,0.0109,0.0278,0.041,-0.007,-0.0068,-0.0067,0,-0.2619,-0.2604,-0.2591,-0.254,-0.2219,-0.2026,-0.1861,-0.1575,-0.1514,-0.1179,-0.108,-0.0835,-0.071,-0.0624,-0.0474,-0.0367,-0.029,-0.0235,-0.0225,-0.0187,-0.0106,0.0065,0.0092,-0.0197,-0.0196,-0.0195,-0.0079,0,-0.2557,-0.2548,-0.2543,-0.2398,-0.2173,-0.2028,-0.1727,-0.1535,-0.1294,-0.1045,-0.0904,-0.0632,-0.0429,-0.0397,-0.0249,-0.0222,-0.0181,-0.01,-0.001,-0.0082,-0.0025,-0.0016,-0.007,-0.0066,-0.0064,-0.0062,0,0,-0.2488,-0.2513,-0.2367,-0.2324,-0.215,-0.1805,-0.1682,-0.1431,-0.0964,-0.088,-0.0762,-0.0403,-0.0244,-0.017,-0.0142,-0.0072,-0.0011,-0.0074,-0.0063,-0.0064,-0.0064,-0.0013,-0.0007,-0.0057,-0.0056,-0.0055,-0.0054,0,-0.2474,-0.2429,-0.2457,-0.2271,-0.2007,-0.1716,-0.1693,-0.1249,-0.105,-0.0787,-0.0586,-0.0459,-0.0193,-0.0058,0.0013,-0.0032,0.0063,-0.0047,-0.0144,-0.0043,-0.0048,-0.0051,-0.0003,0.0,-0.0047,-0.0048,-0.0048,0,-0.2405,-0.2322,-0.2309,-0.2082,-0.1828,-0.1634,-0.1386,-0.1143,-0.096,-0.0673,-0.0371,-0.023,-0.0067,0.0051,0.0087,0.013,0.0159,0.0145,0.0132,0.0125,0.0236,0.0228,0.0222,0.0311,0.0311,0.0312,0,0,-0.2381,-0.2394,-0.21,-0.2048,-0.1958,-0.1523,-0.1317,-0.1079,-0.0777,-0.0618,-0.0362,-0.0184,-0.0071,0.0003,0.0146,0.0221,0.03,0.0182,0.0166,0.0151,0.0137,0.0242,0.0234,0.0314,0.0314,0.0314,0,0,-0.2297,-0.2127,-0.2043,-0.2007,-0.1703,-0.1204,-0.1054,-0.0817,-0.0495,-0.05,-0.0227,-0.0172,-0.0086,0.002,0.0036,0.013,0.0204,0.0206,0.0069,0.005,0.0034,-0.001,0.0169,0,0,0,0,0,-0.2162,-0.2196,-0.2128,-0.2084,-0.1644,-0.1295,-0.1187,-0.0787,-0.0683,-0.0552,-0.0321,-0.0255,0.0095,0.0117,0.0155,0.0093,0.0345,0.034,0.0335,0.0176,0.0154,0.0136,0,0,0,0,0,0,-0.2144,-0.211,-0.2119,-0.1692,-0.1582,-0.1292,-0.1065,-0.0944,-0.0686,-0.064,-0.0283,-0.0245,-0.006,0.0104,0.0137,0.0074,0.0158,0.0343,0.0339,0.0334,0.0168,0.015,0.0135,0,0,0,0,0,-0.2127,-0.2098,-0.1584,-0.167,-0.1576,-0.1056,-0.1064,-0.0962,-0.0704,-0.0426,-0.0361,-0.0433,-0.0063,-0.0026,0.0125,0.0054,0.0136,0.0148,0.034,0.0336,0.0333,0.0159,0,0,0,0,0,0,-0.2114,-0.1862,-0.1544,-0.1485,-0.1704,-0.1051,-0.097,-0.098,-0.05,-0.043,-0.058,-0.0554,-0.0065,-0.0035,-0.0007,0.0038,0.0118,0.013,0.0138,0.0337,0.0334,0.0332,0,0,0,0,0,0,-0.1875,-0.1821,-0.1511,-0.158,-0.1523,-0.1051,-0.098,-0.0867,-0.0515,-0.0676,-0.0637,-0.0578,-0.0286,-0.0042,-0.002,0.0167,0.0104,0.0116,0.0124,0.0129,0.0335,0.0333,0,0,0,0,0,0,-0.1837,-0.1788,-0.1589,-0.1547,-0.1495,-0.0774,-0.0945,-0.0605,-0.0301,-0.0712,-0.0299,-0.0299,-0.0312,-0.0269,-0.0029,0.0147,0.0162,0.0104,0.0112,0.0118,0.0122,0,0,0,0,0,0,0,-0.1805,-0.2331,-0.1938,-0.1518,-0.1473,-0.0952,-0.0931,-0.091,-0.0301,-0.03,-0.0299,-0.0299,0.0037,0.005,0.0063,0.0131,0,0,0.0103,0.0109,0,0,0,0,0,0,0,0,-0.2331,-0.2331,-0.1937,-0.1927,-0.1918,-0.0948,-0.0931,-0.0915,-0.0301,-0.03,-0.03,-0.0299,0.0041,0.0051,0.0062,0,0,0,0,0,0,0,0,0,0,0,0,0,0,0,-0.1936,-0.1928,0,-0.0946,-0.0932,-0.0918,-0.0301,-0.03,-0.03,-0.0299,0.0044,0.0052,0.0061,0,0,0,0,0,0,0,0,0,0,0,0,0,0,0,0,0,0,0,0,0,0,0,0,0,0,0,0,0,0,0,0,0,0,0,0,0,0,0,0,0,0,0,0,0,0,0,0,0,0,0,0,0,0,0,0,0,0,0,0,0,0,0,0,0,0,0,0,0]}]],[[{"header":{"parameterUnit":"kt","parameterCategory":2,"dx":1,"dy":1,"la1":30.253999710083008,"la2":30.299108505249023,"lo1":-89.0895004272461,"lo2":-89.04439544677734,"nx":28,"ny":28,"refTime":"2022-10-03T21:00:00:Z","depth":"2","parameterNumber":2,"parameterNumberName":"U-component_of_CURRENTS"},"data":[-0.4052,-0.3905,-0.3786,-0.3522,-0.3469,-0.3284,-0.3138,-0.2836,-0.2544,-0.1998,-0.1612,-0.1393,-0.1417,-0.1052,-0.1009,-0.0809,-0.1022,-0.0743,-0.1445,-0.145,-0.1502,-0.1668,-0.1721,0,0,0,0,0,-0.4053,-0.3939,-0.3929,-0.3808,-0.3692,-0.383,-0.3768,-0.3582,-0.3268,-0.2949,-0.2564,-0.2031,-0.1628,-0.1555,-0.1242,-0.1256,-0.1237,-0.1236,-0.12,-0.1259,-0.1312,-0.1307,-0.0734,-0.0732,-0.0731,-0.0729,0,0,-0.4037,-0.3974,-0.3904,-0.391,-0.3977,-0.3926,-0.3888,-0.3934,-0.3798,-0.3473,-0.3377,-0.2834,-0.2741,-0.2092,-0.1938,-0.182,-0.1996,-0.1933,-0.1954,-0.1982,-0.2008,-0.204,-0.1624,-0.1628,-0.1631,-0.1634,-0.1637,0,-0.3959,-0.3927,-0.3908,-0.3951,-0.407,-0.4127,-0.4334,-0.4297,-0.4394,-0.4234,-0.3902,-0.3615,-0.321,-0.2699,-0.2502,-0.2327,-0.2493,-0.2326,-0.2859,-0.2291,-0.2325,-0.2305,-0.2356,-0.196,-0.1966,-0.1971,-0.1974,-0.1976,-0.3858,-0.3875,-0.3943,-0.3975,-0.4107,-0.4293,-0.4419,-0.4586,-0.4579,-0.4442,-0.4331,-0.4035,-0.3696,-0.3271,-0.3038,-0.2764,-0.2956,-0.2472,-0.2493,-0.3052,-0.3026,-0.3056,-0.3084,-0.2043,-0.2034,-0.2027,-0.2022,0,-0.3785,-0.3848,-0.394,-0.4087,-0.4181,-0.4283,-0.4542,-0.4557,-0.4622,-0.4515,-0.4483,-0.4241,-0.394,-0.3777,-0.3456,-0.3391,-0.3152,-0.3081,-0.2843,-0.2763,-0.3091,-0.3115,-0.2808,-0.2804,-0.28,-0.2797,-0.2794,0,-0.3783,-0.3895,-0.4038,-0.4084,-0.4184,-0.4373,-0.4472,-0.4568,-0.4583,-0.4519,-0.4453,-0.4263,-0.4105,-0.3891,-0.3758,-0.3491,-0.3474,-0.3347,-0.3289,-0.3056,-0.3035,-0.3468,-0.3486,-0.3339,-0.3342,-0.3344,-0.3346,0,-0.3787,-0.4011,-0.4057,-0.4115,-0.429,-0.4404,-0.4522,-0.4568,-0.46,-0.4527,-0.4444,-0.4267,-0.4167,-0.3995,-0.3834,-0.3864,-0.3531,-0.3537,-0.3385,-0.3381,-0.3043,-0.3016,-0.3348,-0.3348,-0.3349,-0.335,-0.3351,0,-0.3901,-0.3951,-0.4087,-0.4253,-0.4305,-0.442,-0.445,-0.4556,-0.4536,-0.4529,-0.4436,-0.4333,-0.42,-0.4227,-0.3963,-0.4045,-0.3929,-0.3824,-0.381,-0.373,-0.372,-0.3211,-0.3032,-0.3661,-0.3665,-0.3668,-0.3671,0,-0.3812,-0.3964,-0.4063,-0.4225,-0.4307,-0.4417,-0.4483,-0.4564,-0.4562,-0.4514,-0.4465,-0.4384,-0.4404,-0.4342,-0.4259,-0.4085,-0.3999,-0.414,-0.3823,-0.3814,-0.3762,-0.3676,-0.3374,-0.3102,-0.3712,-0.3708,-0.3705,0,-0.3743,-0.3953,-0.3998,-0.4053,-0.421,-0.4304,-0.4418,-0.4487,-0.4497,-0.4563,-0.4495,-0.4463,-0.4394,-0.4352,-0.4281,-0.4199,-0.4065,-0.4161,-0.4153,-0.4038,-0.3784,-0.3739,-0.3706,-0.402,-0.4016,-0.4013,-0.3738,0,-0.3769,-0.3872,-0.396,-0.4044,-0.4135,-0.4284,-0.4394,-0.4474,-0.4516,-0.4518,-0.4496,-0.4458,-0.4374,-0.4352,-0.4338,-0.4216,-0.4177,-0.4162,-0.4133,-0.4123,-0.4008,-0.3983,-0.4273,-0.4272,-0.4271,-0.4271,0,0,-0.3659,-0.3734,-0.3784,-0.3904,-0.3975,-0.4096,-0.4214,-0.4281,-0.443,-0.4434,-0.448,-0.4367,-0.4363,-0.4267,-0.4273,-0.4279,-0.4194,-0.4256,-0.4155,-0.4143,-0.4132,-0.4021,-0.3997,-0.4269,-0.4269,-0.4269,-0.4269,0,-0.3638,-0.3655,-0.3713,-0.3817,-0.401,-0.4045,-0.4131,-0.4281,-0.4331,-0.4424,-0.436,-0.435,-0.4355,-0.4277,-0.4244,-0.4277,-0.416,-0.4253,-0.4276,-0.4154,-0.4143,-0.4132,-0.4022,-0.4001,-0.4267,-0.4267,-0.4267,0,-0.3534,-0.3588,-0.3603,-0.3749,-0.3848,-0.3956,-0.3997,-0.4192,-0.4259,-0.4234,-0.4295,-0.4259,-0.4216,-0.4214,-0.4231,-0.4227,-0.4141,-0.4212,-0.4215,-0.42,-0.4071,-0.406,-0.405,-0.4167,-0.4166,-0.4166,0,0,-0.3506,-0.3519,-0.3671,-0.3761,-0.3839,-0.3946,-0.402,-0.4106,-0.4203,-0.4237,-0.4235,-0.4231,-0.4203,-0.4233,-0.4207,-0.4234,-0.4155,-0.4201,-0.4206,-0.421,-0.4197,-0.4071,-0.4061,-0.4165,-0.4165,-0.4165,0,0,-0.3529,-0.3619,-0.3621,-0.3721,-0.386,-0.3982,-0.4058,-0.4106,-0.4169,-0.42,-0.4166,-0.4176,-0.4221,-0.4212,-0.421,-0.4168,-0.4146,-0.4148,-0.4176,-0.4182,-0.4187,-0.417,-0.412,0,0,0,0,0,-0.3544,-0.3601,-0.36,-0.3635,-0.3775,-0.3957,-0.3972,-0.4052,-0.4065,-0.4129,-0.4158,-0.4116,-0.4188,-0.4186,-0.4185,-0.4152,-0.4155,-0.4157,-0.4158,-0.4198,-0.4204,-0.421,0,0,0,0,0,0,-0.3559,-0.3596,-0.3603,-0.3723,-0.376,-0.3949,-0.3919,-0.3935,-0.4063,-0.4073,-0.4105,-0.4111,-0.4073,-0.4182,-0.4182,-0.415,-0.412,-0.4156,-0.4157,-0.4159,-0.42,-0.4205,-0.421,0,0,0,0,0,-0.3571,-0.3602,-0.3816,-0.372,-0.3751,-0.388,-0.3918,-0.3934,-0.4018,-0.403,-0.4041,-0.4104,-0.407,-0.4077,-0.4182,-0.415,-0.4119,-0.412,-0.4157,-0.4158,-0.4159,-0.4203,0,0,0,0,0,0,-0.3581,-0.3548,-0.3822,-0.3834,-0.3754,-0.3873,-0.3894,-0.3931,-0.3966,-0.3984,-0.4017,-0.4023,-0.4067,-0.4073,-0.4077,-0.4151,-0.4119,-0.4119,-0.4119,-0.4158,-0.4158,-0.4159,0,0,0,0,0,0,-0.3536,-0.3556,-0.3826,-0.3863,-0.3879,-0.3867,-0.3887,-0.3882,-0.3964,-0.3942,-0.3954,-0.402,-0.409,-0.407,-0.4073,-0.4059,-0.4118,-0.4119,-0.4119,-0.4119,-0.4158,-0.4159,0,0,0,0,0,0,-0.3545,-0.3562,-0.3858,-0.387,-0.3883,-0.3997,-0.386,-0.3993,-0.4016,-0.3934,-0.4024,-0.4028,-0.4087,-0.409,-0.407,-0.4053,-0.4057,-0.4118,-0.4118,-0.4119,-0.4119,0,0,0,0,0,0,0,-0.3553,-0.3426,-0.3792,-0.3875,-0.3886,-0.3956,-0.3955,-0.3954,-0.4016,-0.402,-0.4023,-0.4027,-0.4116,-0.4117,-0.4117,-0.4049,0,0,-0.4118,-0.4118,0,0,0,0,0,0,0,0,-0.342,-0.3424,-0.3793,-0.3798,-0.3802,-0.3956,-0.3955,-0.3955,-0.4017,-0.402,-0.4023,-0.4025,-0.4116,-0.4117,-0.4117,0,0,0,0,0,0,0,0,0,0,0,0,0,0,0,-0.3793,-0.3797,0,-0.3956,-0.3955,-0.3955,-0.4017,-0.402,-0.4022,-0.4024,-0.4116,-0.4117,-0.4117,0,0,0,0,0,0,0,0,0,0,0,0,0,0,0,0,0,0,0,0,0,0,0,0,0,0,0,0,0,0,0,0,0,0,0,0,0,0,0,0,0,0,0,0,0,0,0,0,0,0,0,0,0,0,0,0,0,0,0,0,0,0,0,0,0,0,0,0,0]}],[{"header":{"parameterUnit":"kt","parameterCategory":2,"dx":1,"dy":1,"la1":30.253999710083008,"la2":30.299108505249023,"lo1":-89.0895004272461,"lo2":-89.04439544677734,"nx":28,"ny":28,"refTime":"2022-10-03T21:00:00:Z","depth":"2","parameterNumber":3,"parameterNumberName":"V-component_of_CURRENTS"},"data":[-0.0756,-0.0846,-0.0926,-0.1105,-0.1213,-0.1298,-0.1348,-0.1324,-0.1128,-0.081,-0.0317,0.0143,0.0729,0.0916,0.0995,0.1158,0.1097,0.1123,0.1118,0.1042,0.1033,0.1169,0.1327,0,0,0,0,0,-0.0775,-0.0865,-0.098,-0.1088,-0.1206,-0.1239,-0.1339,-0.1323,-0.1307,-0.1066,-0.0819,-0.0104,0.044,0.087,0.1176,0.126,0.1218,0.1234,0.1194,0.1188,0.1182,0.1286,0.1245,0.1245,0.1245,0.1244,0,0,-0.0803,-0.0866,-0.0916,-0.1012,-0.1104,-0.1207,-0.1238,-0.1269,-0.1259,-0.1133,-0.0921,-0.038,-0.0006,0.0804,0.0947,0.1113,0.1133,0.1188,0.1183,0.1178,0.1283,0.1279,0.1242,0.1242,0.1242,0.1242,0.1242,0,-0.0784,-0.0799,-0.0834,-0.0938,-0.0987,-0.1044,-0.105,-0.111,-0.0991,-0.096,-0.0811,-0.0569,-0.0085,0.0394,0.0819,0.0977,0.1028,0.1091,0.1024,0.1209,0.1193,0.1239,0.125,0.1131,0.113,0.113,0.1129,0.1129,-0.0713,-0.075,-0.0779,-0.0825,-0.0814,-0.0816,-0.082,-0.0715,-0.0718,-0.0583,-0.0613,-0.0365,-0.008,0.032,0.0671,0.0946,0.1024,0.1065,0.1201,0.1157,0.1203,0.1217,0.123,0.112,0.1121,0.1122,0.1123,0,-0.0666,-0.0649,-0.069,-0.0657,-0.0654,-0.0659,-0.0609,-0.0598,-0.0469,-0.0462,-0.0438,-0.0151,0.0095,0.0381,0.0643,0.0825,0.1008,0.1095,0.1073,0.1111,0.1214,0.1229,0.1083,0.1085,0.1086,0.1087,0.1088,0,-0.0558,-0.0583,-0.0543,-0.0558,-0.0596,-0.0463,-0.0456,-0.0324,-0.0227,-0.0203,0.0055,0.0103,0.0429,0.0576,0.0808,0.1029,0.0961,0.1246,0.1279,0.1302,0.1312,0.1311,0.1327,0.1197,0.1199,0.1201,0.1202,0,-0.0459,-0.0426,-0.0469,-0.0445,-0.0352,-0.0321,-0.0247,-0.0057,0.002,0.0181,0.02,0.0389,0.0505,0.064,0.0993,0.1035,0.1109,0.1192,0.1322,0.1324,0.1318,0.1327,0.1204,0.1204,0.1205,0.1206,0.1206,0,-0.0319,-0.0324,-0.0342,-0.029,-0.0273,-0.0233,-0.0119,0.0016,0.0218,0.0351,0.0492,0.0662,0.0826,0.1009,0.1173,0.1206,0.1317,0.1423,0.1418,0.15,0.1603,0.1367,0.1349,0.1374,0.1377,0.1379,0.1381,0,-0.0256,-0.026,-0.019,-0.0173,-0.0162,0.0004,0.01,0.0275,0.0455,0.0554,0.0814,0.0965,0.1203,0.1285,0.1374,0.155,0.1542,0.1633,0.1545,0.154,0.155,0.1552,0.1569,0.1382,0.1409,0.1406,0.1404,0,-0.0194,-0.0118,-0.0112,-0.0105,0.0039,0.009,0.0239,0.0387,0.0453,0.0712,0.0765,0.1167,0.1246,0.1379,0.1558,0.1608,0.1588,0.1682,0.1683,0.1505,0.1484,0.1577,0.1566,0.1654,0.1652,0.165,0.1426,0,-0.0085,-0.0067,-0.0057,0.0006,0.0074,0.0135,0.0321,0.044,0.0604,0.0736,0.0959,0.1235,0.1416,0.1542,0.1715,0.1766,0.1724,0.1807,0.1737,0.1775,0.1681,0.1663,0.1884,0.1884,0.1885,0.1886,0,0,-0.0043,-0.004,0.0041,0.0075,0.0119,0.0288,0.0319,0.0462,0.0705,0.0788,0.0902,0.1253,0.1465,0.1631,0.1729,0.1844,0.1789,0.1746,0.1806,0.1797,0.1789,0.1697,0.168,0.1887,0.1887,0.1887,0.1888,0,-0.001,0.0026,0.0016,0.0094,0.0222,0.0301,0.034,0.0505,0.0622,0.0837,0.0989,0.1191,0.1453,0.1587,0.1699,0.1844,0.1764,0.1895,0.1812,0.1814,0.1804,0.1795,0.1703,0.1687,0.1889,0.1889,0.1889,0,0.003,0.008,0.0081,0.0184,0.0261,0.0321,0.0423,0.0532,0.0625,0.0804,0.0975,0.1148,0.1359,0.1541,0.1636,0.1618,0.1718,0.1768,0.177,0.1693,0.169,0.1682,0.1676,0.1739,0.1737,0.1736,0,0,0.0055,0.0053,0.0181,0.0204,0.0246,0.0379,0.0436,0.0536,0.0708,0.0786,0.0929,0.1117,0.1303,0.1403,0.1558,0.1703,0.1655,0.1741,0.1748,0.1753,0.1681,0.1679,0.1674,0.1731,0.1731,0.173,0,0,0.0089,0.0176,0.0211,0.0237,0.0343,0.0482,0.0512,0.06,0.0777,0.0823,0.0977,0.1031,0.1244,0.1324,0.1246,0.1504,0.1489,0.1508,0.1414,0.1425,0.1432,0.1301,0.1239,0,0,0,0,0,0.0163,0.0155,0.0184,0.0204,0.0333,0.0448,0.047,0.0587,0.0638,0.0675,0.0883,0.0888,0.1336,0.127,0.1305,0.1323,0.1662,0.1674,0.1686,0.1603,0.1613,0.1622,0,0,0,0,0,0,0.0172,0.0193,0.0186,0.0312,0.0345,0.0446,0.0513,0.0544,0.0639,0.0657,0.0853,0.0891,0.0985,0.1253,0.1284,0.13,0.1229,0.1667,0.1677,0.1686,0.1606,0.1615,0.1622,0,0,0,0,0,0.0179,0.0197,0.0369,0.0315,0.0342,0.0495,0.0515,0.0542,0.0625,0.0787,0.0827,0.072,0.0979,0.102,0.1272,0.1284,0.1208,0.1219,0.1673,0.1682,0.1689,0.161,0,0,0,0,0,0,0.0185,0.0216,0.0378,0.0392,0.034,0.0495,0.0521,0.0539,0.0755,0.0791,0.0657,0.0668,0.0975,0.1008,0.1038,0.1274,0.119,0.1202,0.1209,0.168,0.1686,0.1692,0,0,0,0,0,0,0.0209,0.0226,0.0385,0.041,0.0428,0.0494,0.0517,0.0627,0.0759,0.0613,0.0628,0.066,0.0971,0.0998,0.1023,0.1186,0.1177,0.1188,0.1196,0.1201,0.1685,0.169,0,0,0,0,0,0,0.0219,0.0234,0.0407,0.042,0.0436,0.0599,0.0599,0.0746,0.071,0.0604,0.0719,0.0723,0.0962,0.0987,0.1011,0.1163,0.118,0.1177,0.1185,0.119,0.1194,0,0,0,0,0,0,0,0.0227,0.009,0.0301,0.0429,0.0443,0.0524,0.0528,0.0531,0.0711,0.0714,0.0718,0.0721,0.1113,0.1125,0.1137,0.1144,0,0,0.1176,0.1181,0,0,0,0,0,0,0,0,0.0087,0.009,0.0302,0.0305,0.0309,0.0525,0.0528,0.053,0.0711,0.0714,0.0717,0.072,0.1116,0.1126,0.1136,0,0,0,0,0,0,0,0,0,0,0,0,0,0,0,0.0302,0.0305,0,0.0525,0.0527,0.053,0.0712,0.0714,0.0717,0.0719,0.1119,0.1127,0.1135,0,0,0,0,0,0,0,0,0,0,0,0,0,0,0,0,0,0,0,0,0,0,0,0,0,0,0,0,0,0,0,0,0,0,0,0,0,0,0,0,0,0,0,0,0,0,0,0,0,0,0,0,0,0,0,0,0,0,0,0,0,0,0,0,0,0,0,0,0]}]],[[{"header":{"parameterUnit":"kt","parameterCategory":2,"dx":1,"dy":1,"la1":30.253999710083008,"la2":30.299108505249023,"lo1":-89.0895004272461,"lo2":-89.04439544677734,"nx":28,"ny":28,"refTime":"2022-10-03T21:00:00:Z","depth":"4","parameterNumber":2,"parameterNumberName":"U-component_of_CURRENTS"},"data":[-0.1206,-0.1246,-0.1279,-0.125,-0.1255,-0.1352,-0.1461,-0.1618,-0.1603,-0.1801,-0.1746,-0.1908,-0.183,-0.1947,-0.1772,-0.1785,-0.181,-0.1931,-0.1926,-0.2056,-0.2076,-0.2093,-0.2046,0,0,0,0,0,-0.1299,-0.1287,-0.1356,-0.1432,-0.1542,-0.1605,-0.1811,-0.1953,-0.2157,-0.2036,-0.2145,-0.2059,-0.1961,-0.1998,-0.1846,-0.2062,-0.2034,-0.1885,-0.1989,-0.2068,-0.209,-0.2037,0,0,0,0,0,0,-0.1418,-0.1428,-0.1536,-0.1626,-0.1744,-0.1793,-0.1926,-0.2009,-0.2101,-0.2285,-0.2254,-0.2263,-0.2342,-0.2214,-0.2159,-0.2067,-0.2023,-0.197,-0.1995,-0.2017,-0.1956,-0.1915,-0.1699,0,0,0,0,0,-0.1522,-0.1595,-0.1686,-0.1802,-0.1913,-0.2033,-0.2195,-0.2223,-0.2433,-0.2587,-0.2527,-0.2466,-0.2393,-0.2324,-0.2254,-0.2184,-0.2359,-0.2269,-0.2279,-0.2252,-0.2243,-0.2231,-0.2245,-0.217,-0.2173,-0.2175,-0.2176,0,-0.1631,-0.1677,-0.1891,-0.1952,-0.2054,-0.2215,-0.231,-0.2528,-0.2588,-0.2733,-0.2711,-0.2708,-0.27,-0.2478,-0.2503,-0.2393,-0.2353,-0.2325,-0.2297,-0.2278,-0.2259,-0.2268,-0.2275,-0.2193,-0.2192,-0.219,-0.2189,0,-0.1672,-0.1809,-0.1927,-0.2147,-0.222,-0.2302,-0.2526,-0.259,-0.2736,-0.2771,-0.2786,-0.284,-0.2779,-0.275,-0.2692,-0.2602,-0.2509,-0.2437,-0.2645,-0.2629,-0.2305,-0.2306,-0.2221,-0.2215,-0.221,-0.2205,-0.2201,0,-0.1788,-0.1875,-0.2075,-0.2136,-0.2257,-0.2422,-0.2543,-0.2647,-0.276,-0.2786,-0.2842,-0.2829,-0.2826,-0.2789,-0.2744,-0.2605,-0.2696,-0.2476,-0.2446,-0.2632,-0.2632,-0.2607,-0.2603,-0.2636,-0.2636,-0.2636,-0.2636,0,-0.1811,-0.1998,-0.2096,-0.2161,-0.2366,-0.2448,-0.2559,-0.2673,-0.2733,-0.2803,-0.2829,-0.2818,-0.2808,-0.2779,-0.2721,-0.2725,-0.2683,-0.2671,-0.2483,-0.2472,-0.2606,-0.2603,-0.2636,-0.2636,-0.2636,-0.2636,-0.2636,0,-0.1893,-0.1987,-0.2112,-0.2291,-0.2336,-0.2432,-0.2579,-0.2667,-0.2738,-0.2778,-0.278,-0.2764,-0.2747,-0.2726,-0.2694,-0.2709,-0.2677,-0.265,-0.2649,-0.247,-0.2432,-0.2564,-0.2618,-0.2618,-0.2618,-0.2618,-0.2618,0,-0.1879,-0.2014,-0.2098,-0.2234,-0.2309,-0.242,-0.2508,-0.2596,-0.2653,-0.271,-0.2677,-0.2702,-0.2678,-0.2684,-0.2672,-0.2651,-0.2637,-0.264,-0.2601,-0.26,-0.2435,-0.2442,-0.2637,-0.2618,-0.2618,-0.2618,-0.2618,0,-0.1857,-0.2023,-0.2041,-0.2109,-0.2257,-0.2329,-0.2427,-0.2517,-0.2571,-0.2631,-0.2669,-0.2668,-0.2657,-0.2647,-0.2626,-0.2617,-0.2633,-0.2615,-0.2613,-0.2594,-0.263,-0.2464,-0.2448,-0.2636,-0.2636,-0.2636,-0.2618,0,-0.1902,-0.1977,-0.202,-0.2132,-0.2208,-0.2293,-0.2382,-0.2459,-0.2514,-0.2548,-0.2588,-0.2585,-0.2596,-0.2594,-0.2583,-0.259,-0.2589,-0.2572,-0.253,-0.2574,-0.2562,-0.2562,-0.2543,-0.2542,-0.2541,-0.254,0,0,-0.1848,-0.1921,-0.1987,-0.2062,-0.2127,-0.2205,-0.2279,-0.2338,-0.2448,-0.2469,-0.2485,-0.2524,-0.2513,-0.2509,-0.2532,-0.2535,-0.2537,-0.2524,-0.2561,-0.2563,-0.2566,-0.2556,-0.2557,-0.2538,-0.2538,-0.2538,-0.2537,0,-0.185,-0.1906,-0.1956,-0.2029,-0.2135,-0.2188,-0.2221,-0.2328,-0.2369,-0.245,-0.2441,-0.2453,-0.2497,-0.2475,-0.2466,-0.2525,-0.2489,-0.2536,-0.2563,-0.2554,-0.2558,-0.2561,-0.2552,-0.2554,-0.2535,-0.2535,-0.2535,0,-0.1826,-0.1887,-0.1916,-0.2021,-0.2081,-0.2156,-0.2172,-0.2264,-0.2323,-0.2311,-0.2395,-0.2395,-0.2384,-0.2416,-0.243,-0.241,-0.2445,-0.2441,-0.2446,-0.2439,-0.2427,-0.2432,-0.2437,-0.2373,-0.2372,-0.2372,0,0,-0.1828,-0.1881,-0.197,-0.2026,-0.2065,-0.2143,-0.2192,-0.2239,-0.2296,-0.2323,-0.2347,-0.2361,-0.2366,-0.2375,-0.2386,-0.2416,-0.2395,-0.2421,-0.2429,-0.2435,-0.2432,-0.2422,-0.2428,-0.237,-0.237,-0.237,0,0,-0.1827,-0.192,-0.1939,-0.2007,-0.2083,-0.2168,-0.2214,-0.2253,-0.2308,-0.2315,-0.2309,-0.2311,-0.2351,-0.2341,-0.232,-0.2359,-0.2328,-0.2332,-0.2361,-0.2371,-0.2378,-0.2371,-0.2269,0,0,0,0,0,-0.1866,-0.1908,-0.1923,-0.1944,-0.2062,-0.2156,-0.2174,-0.2231,-0.2243,-0.2282,-0.2306,-0.2274,-0.233,-0.2311,-0.2312,-0.2321,-0.2345,-0.235,-0.2354,-0.2399,-0.2409,-0.2417,0,0,0,0,0,0,-0.1875,-0.1898,-0.1923,-0.2005,-0.2033,-0.2153,-0.2151,-0.2168,-0.224,-0.2245,-0.2274,-0.2273,-0.226,-0.2308,-0.2309,-0.2319,-0.2268,-0.2347,-0.2351,-0.2354,-0.2402,-0.241,-0.2417,0,0,0,0,0,-0.1882,-0.1901,-0.2071,-0.2005,-0.2029,-0.2118,-0.215,-0.2164,-0.2225,-0.223,-0.2235,-0.227,-0.226,-0.2262,-0.2308,-0.2319,-0.2267,-0.2268,-0.2349,-0.2352,-0.2355,-0.2406,0,0,0,0,0,0,-0.1887,-0.191,-0.2078,-0.2088,-0.1998,-0.2113,-0.2131,-0.216,-0.2205,-0.2213,-0.222,-0.2223,-0.226,-0.2261,-0.2263,-0.232,-0.2266,-0.2267,-0.2267,-0.2352,-0.2354,-0.2356,0,0,0,0,0,0,-0.1901,-0.1918,-0.2083,-0.207,-0.208,-0.2109,-0.2125,-0.2133,-0.2201,-0.219,-0.2196,-0.222,-0.2232,-0.2261,-0.2262,-0.2275,-0.2265,-0.2266,-0.2266,-0.2267,-0.2353,-0.2355,0,0,0,0,0,0,-0.191,-0.1924,-0.2068,-0.2075,-0.2083,-0.2201,-0.2113,-0.2212,-0.2251,-0.2184,-0.225,-0.225,-0.223,-0.2233,-0.2262,-0.2274,-0.2274,-0.2265,-0.2266,-0.2266,-0.2266,0,0,0,0,0,0,0,-0.1917,-0.18,-0.2021,-0.2079,-0.2086,-0.2186,-0.2188,-0.2191,-0.2251,-0.2251,-0.225,-0.225,-0.2261,-0.2262,-0.2263,-0.2273,0,0,-0.2265,-0.2265,0,0,0,0,0,0,0,0,-0.1796,-0.1799,-0.2021,-0.2024,-0.2026,-0.2186,-0.2188,-0.219,-0.2251,-0.2251,-0.2251,-0.225,-0.2262,-0.2262,-0.2263,0,0,0,0,0,0,0,0,0,0,0,0,0,0,0,-0.2022,-0.2024,0,-0.2187,-0.2188,-0.219,-0.2251,-0.2251,-0.2251,-0.225,-0.2262,-0.2262,-0.2263,0,0,0,0,0,0,0,0,0,0,0,0,0,0,0,0,0,0,0,0,0,0,0,0,0,0,0,0,0,0,0,0,0,0,0,0,0,0,0,0,0,0,0,0,0,0,0,0,0,0,0,0,0,0,0,0,0,0,0,0,0,0,0,0,0,0,0,0,0]}],[{"header":{"parameterUnit":"kt","parameterCategory":2,"dx":1,"dy":1,"la1":30.253999710083008,"la2":30.299108505249023,"lo1":-89.0895004272461,"lo2":-89.04439544677734,"nx":28,"ny":28,"refTime":"2022-10-03T21:00:00:Z","depth":"4","parameterNumber":3,"parameterNumberName":"V-component_of_CURRENTS"},"data":[-0.0756,-0.0832,-0.0868,-0.0972,-0.1034,-0.1113,-0.1132,-0.1097,-0.1013,-0.0917,-0.0684,-0.0571,-0.0163,-0.0291,0.022,0.0289,0.0311,0.0764,0.0766,0.0807,0.0805,0.0803,0.057,0,0,0,0,0,-0.0735,-0.0788,-0.0868,-0.0951,-0.1028,-0.1067,-0.1096,-0.1084,-0.1022,-0.0914,-0.0835,-0.0566,-0.0184,0.0016,0.0225,0.0323,0.0591,0.0565,0.0588,0.0806,0.0804,0.0578,0,0,0,0,0,0,-0.0716,-0.0759,-0.0822,-0.0891,-0.0972,-0.1027,-0.1039,-0.0999,-0.0971,-0.0825,-0.0754,-0.044,-0.0229,0.0118,0.035,0.0566,0.0572,0.057,0.058,0.0581,0.037,0.0288,0.0448,0,0,0,0,0,-0.0683,-0.071,-0.0753,-0.0839,-0.0898,-0.0948,-0.0972,-0.0976,-0.0905,-0.085,-0.0669,-0.0457,-0.016,0.0155,0.0423,0.0619,0.0731,0.0805,0.0803,0.0635,0.0603,0.0615,0.0593,0.0795,0.0795,0.0794,0.0794,0,-0.0634,-0.0664,-0.0729,-0.0774,-0.08,-0.0832,-0.0858,-0.0818,-0.0804,-0.0673,-0.0653,-0.0407,-0.0262,0.0159,0.0367,0.0698,0.0675,0.0799,0.0619,0.0596,0.0614,0.0592,0.0571,0.0792,0.0793,0.0793,0.0793,0,-0.0601,-0.0621,-0.0676,-0.0702,-0.0717,-0.0742,-0.0758,-0.0756,-0.068,-0.0639,-0.0614,-0.0417,-0.0171,0.0049,0.0327,0.0395,0.0589,0.0638,0.0563,0.059,0.058,0.0559,0.0789,0.079,0.0791,0.0791,0.0791,0,-0.0553,-0.0592,-0.0613,-0.0643,-0.0686,-0.0656,-0.0673,-0.0635,-0.0575,-0.0555,-0.0435,-0.0383,-0.018,-0.0008,0.0123,0.0325,0.0378,0.0378,0.0419,0.0297,0.028,0.0344,0.0329,0.0438,0.0435,0.0433,0.0431,0,-0.0499,-0.054,-0.0584,-0.0591,-0.0597,-0.0607,-0.06,-0.0535,-0.0522,-0.0419,-0.0393,-0.0278,-0.0225,-0.0081,0.006,0.0018,0.0312,0.0275,0.0345,0.0347,0.0324,0.0314,0.0428,0.0427,0.0427,0.0426,0.0425,0,-0.0456,-0.0476,-0.0528,-0.0544,-0.0545,-0.0565,-0.0524,-0.0513,-0.0433,-0.0396,-0.0348,-0.0312,-0.0244,-0.0264,-0.0065,-0.014,-0.004,0.0036,0.005,0.0037,0.004,0.0217,0.0233,0.023,0.0227,0.0224,0.0222,0,-0.0401,-0.0449,-0.0441,-0.0485,-0.0496,-0.045,-0.045,-0.0415,-0.037,-0.0332,-0.0304,-0.0309,-0.0322,-0.0332,-0.0276,-0.0201,-0.0113,-0.0248,0.0042,0.0053,0.0048,0.0055,-0.0155,0.0179,0.0185,0.0188,0.0191,0,-0.035,-0.0368,-0.0375,-0.0387,-0.0363,-0.0366,-0.0357,-0.0331,-0.0308,-0.0298,-0.0268,-0.0334,-0.0308,-0.0319,-0.0329,-0.0271,-0.0166,-0.024,-0.0234,-0.0059,0.0066,0.0014,0.0036,-0.0168,-0.0165,-0.0163,0.0162,0,-0.0309,-0.0322,-0.0334,-0.0331,-0.0325,-0.0333,-0.0295,-0.0284,-0.0254,-0.0227,-0.0241,-0.0257,-0.0264,-0.03,-0.0307,-0.0296,-0.0234,-0.0253,-0.0167,-0.0209,-0.0064,-0.0041,-0.0294,-0.0293,-0.0293,-0.0292,0,0,-0.0253,-0.0267,-0.0234,-0.0249,-0.0246,-0.0193,-0.0208,-0.0188,-0.0168,-0.0152,-0.0146,-0.0183,-0.0197,-0.0222,-0.0265,-0.0286,-0.02,-0.0232,-0.0225,-0.0218,-0.0211,-0.0074,-0.0053,-0.029,-0.029,-0.029,-0.0289,0,-0.0232,-0.0207,-0.0225,-0.0218,-0.0199,-0.0176,-0.0173,-0.0142,-0.0117,-0.0134,-0.0119,-0.014,-0.0168,-0.0172,-0.0181,-0.027,-0.0158,-0.0301,-0.0295,-0.0221,-0.0215,-0.021,-0.0074,-0.0056,-0.0287,-0.0287,-0.0288,0,-0.0184,-0.0168,-0.017,-0.0152,-0.0135,-0.014,-0.0086,-0.0079,-0.0076,-0.0034,-0.0037,-0.0053,-0.0063,-0.0105,-0.012,-0.0085,-0.0083,-0.0144,-0.015,-0.0118,-0.0036,-0.0033,-0.0029,-0.0056,-0.0055,-0.0054,0,0,-0.0164,-0.0168,-0.0135,-0.0142,-0.0134,-0.0097,-0.009,-0.006,-0.0043,-0.0033,-0.0013,-0.0013,-0.0039,-0.0032,-0.0057,-0.0084,0.0,-0.0113,-0.0124,-0.0133,-0.0107,-0.0029,-0.0027,-0.005,-0.005,-0.005,0,0,-0.0151,-0.012,-0.0099,-0.0101,-0.0089,-0.0055,-0.006,-0.0028,-0.0016,-0.0003,0.0033,0.0039,0.0,0.0013,0.0057,-0.0027,0.0013,0.0005,-0.0011,-0.0024,-0.0035,0.0005,0.0116,0,0,0,0,0,-0.0114,-0.0128,-0.011,-0.0106,-0.0072,-0.0069,-0.0065,-0.0024,0.0013,0.0007,0.0025,0.0066,0.0029,0.007,0.0072,0.0042,-0.0003,-0.0011,-0.0019,-0.0049,-0.0064,-0.0076,0,0,0,0,0,0,-0.0112,-0.0106,-0.011,-0.0077,-0.0069,-0.0068,-0.0015,-0.0004,0.0014,0.0023,0.0059,0.0066,0.0089,0.0073,0.0073,0.0044,0.0115,-0.0006,-0.0013,-0.002,-0.0054,-0.0066,-0.0076,0,0,0,0,0,-0.011,-0.0106,-0.0059,-0.0076,-0.007,-0.0024,-0.0013,-0.0004,0.0018,0.0045,0.0055,0.005,0.0087,0.0091,0.0073,0.0043,0.0115,0.0115,-0.0011,-0.0017,-0.0022,-0.006,0,0,0,0,0,0,-0.0109,-0.0098,-0.0057,-0.0055,-0.0059,-0.0023,-0.0014,-0.0004,0.0041,0.0049,0.0036,0.0042,0.0085,0.0088,0.0091,0.004,0.0115,0.0115,0.0115,-0.0015,-0.002,-0.0024,0,0,0,0,0,0,-0.01,-0.0095,-0.0056,-0.0036,-0.0031,-0.0022,-0.0014,-0.002,0.004,0.0029,0.0035,0.0038,0.008,0.0086,0.0088,0.0077,0.0115,0.0115,0.0115,0.0115,-0.0019,-0.0022,0,0,0,0,0,0,-0.0098,-0.0094,-0.0037,-0.0032,-0.0027,0.0009,-0.0027,0.0006,0.0055,0.0027,0.0061,0.0063,0.0077,0.0081,0.0087,0.0074,0.0077,0.0115,0.0115,0.0115,0.0115,0,0,0,0,0,0,0,-0.0096,-0.0129,-0.0076,-0.0029,-0.0024,-0.0028,-0.0027,-0.0026,0.0056,0.0058,0.006,0.0062,0.0114,0.0115,0.0115,0.0072,0,0,0.0115,0.0115,0,0,0,0,0,0,0,0,-0.013,-0.0129,-0.0076,-0.0076,-0.0075,-0.0028,-0.0027,-0.0027,0.0056,0.0058,0.006,0.0062,0.0114,0.0115,0.0115,0,0,0,0,0,0,0,0,0,0,0,0,0,0,0,-0.0076,-0.0076,0,-0.0028,-0.0027,-0.0027,0.0057,0.0058,0.006,0.0061,0.0114,0.0115,0.0115,0,0,0,0,0,0,0,0,0,0,0,0,0,0,0,0,0,0,0,0,0,0,0,0,0,0,0,0,0,0,0,0,0,0,0,0,0,0,0,0,0,0,0,0,0,0,0,0,0,0,0,0,0,0,0,0,0,0,0,0,0,0,0,0,0,0,0,0,0]}]]]